TIME,DELAY(SENSOR),PRES,T(CTD),SAL,OXYGEN,RAWTEMP,T(OPTODE),TCPHASE,FLUOR,BETA(BETA700),BETA(BETA412),BETA(BETA440),CDOM,C(CSC),ED(ED411.90),ED(ED443.80),ED(ED489.40),ED(ED554.70),LU(LU412.20),LU(LU443.80),LU(LU489.40),LU(LU555.00),COMP,TILTX,TILTX(TILTY),CHECK
1338046567,5805,497.0299987792969000,16.1851005554199220,36.2168998718261700,216.4067993164062500,229.7772979736328000,16.1762294769287100,33.2821388244628900,50,108,102,80,69,15462,2147477549,2147774829,2147563702,2147803794,2147312758,2147473133,2147718811,2148244050,127,7,13,9461
1338046682,5804,485.7799987792969000,16.2703990936279300,36.2341995239257800,218.4954986572265600,226.7317047119140600,16.2688198089599600,33.1273117065429700,50,108,101,80,69,15461,2147478427,2147775561,2147565275,2147801014,2147311561,2147472009,2147715236,2148242212,3479,6,13,3273
1338046787,5801,475.4100036621094000,16.3509998321533200,36.2494010925293000,219.7330932617187500,224.2418060302734400,16.3445301055908200,33.0263710021972660,50,107,100,80,68,15462,2147476763,2147774921,2147565778,2147801801,2147310262,2147472393,2147713901,2148237056,3577,6,13,64967
1338046902,5803,464.3399963378906000,16.5210990905761720,36.2809982299804700,221.2933044433593800,218.5646057128906200,16.5171394348144530,32.8646888732910160,50,107,99,80,69,15464,2147481206,2147774253,2147562715,2147801435,2147315675,2147471140,2147719341,2148239570,325,7,13,29121
1338047029,5804,452.7200012207031000,16.6630992889404300,36.3110008239746100,225.1712951660156200,213.9028015136718800,16.6588897705078120,32.5984611511230500,50,108,101,80,68,15461,2147481856,2147771693,2147561572,2147797586,2147313088,2147471396,2147718070,2148244827,74,7,13,2120
1338047146,5805,442.4700012207031000,16.7101001739501950,36.3218994140625000,226.7212982177734400,212.3834991455078000,16.7050800323486330,32.4982109069824200,50,109,101,79,68,15458,2147485110,2147770651,2147562989,2147801206,2147312685,2147473645,2147715035,2148236342,451,7,13,65523
1338047285,5805,431.0799865722656000,16.8911991119384770,36.3577995300293000,227.9544982910156200,206.4429931640625000,16.8857307434082030,32.3536109924316400,50,107,101,80,68,15459,2147482916,2147770148,2147561499,2147802331,2147312228,2147471780,2147715657,2148239414,3442,7,13,10776
1338047414,5803,420.6900024414062500,17.0037002563476560,36.3801002502441400,230.5153961181640600,202.4217071533203000,17.0080299377441400,32.1700096130371100,50,108,102,79,67,15462,2147485778,2147770011,2147561344,2147800118,2147311771,2147470646,2147713590,2148242560,703,7,12,51175
1338047553,5803,409.7399902343750000,17.1487007141113280,36.4075012207031250,232.2666015625000000,197.7975006103515600,17.1486797332763670,32.0197715759277340,50,108,101,79,68,15460,2147488393,2147773705,2147562660,2147797001,2147313654,2147475392,2147713188,2148244836,1063,7,13,43329
1338047725,5804,395.6199951171875000,17.2856006622314450,36.4337005615234400,233.5903015136718800,193.4089050292968800,17.2821807861328120,31.8948593139648440,50,108,99,80,67,15458,2147485696,2147771465,2147560054,2147798884,2147311908,2147476013,2147711469,2148235099,1203,7,13,33733
1338047838,5804,384.3699951171875000,17.3435993194580080,36.4454994201660160,234.2682037353515600,191.0693969726562500,17.3533496856689450,31.8299903869628900,50,107,101,80,67,15462,2147484160,2147768228,2147562285,2147796973,2147314852,2147471478,2147709302,2148237613,1516,7,13,57777
1338047953,5803,372.3500061035156000,17.4510993957519530,36.4662017822265600,236.3222961425781200,187.9888000488281200,17.4470806121826170,31.6888999938964840,50,108,101,79,67,15461,2147485193,2147769270,2147561737,2147797330,2147313828,2147476845,2147710390,2148237668,1687,7,12,11378
1338048058,5804,361.2699890136719000,17.4950008392334000,36.4744987487793000,236.4452972412109400,186.3139953613281200,17.4980392456054700,31.6603202819824220,50,108,101,79,67,15456,2147482779,2147768384,2147559012,2147795309,2147312475,2147476361,2147708315,2148239661,2883,6,13,33403
1338048173,5803,349.2099914550781000,17.6284999847412100,36.4981002807617200,237.1786041259765600,181.8256988525390600,17.6346302032470700,31.5642700195312500,50,109,101,79,66,15459,2147488100,2147770358,2147559890,2147796461,2147313005,2147476854,2147712118,2148243556,2855,7,13,15585
1338048288,5801,337.2300109863281000,17.7129993438720700,36.5097999572753900,237.7588958740234400,179.3379974365234400,17.7103404998779300,31.5030899047851560,50,110,101,79,66,15450,2147485449,2147768969,2147560420,2147797641,2147311122,2147476763,2147712365,2148241115,3401,7,13,45527
1338048405,5804,326.4200134277344000,17.7808990478515620,36.5205001831054700,237.2093048095703000,177.1083068847656200,17.7782096862792970,31.4990196228027340,50,109,100,80,68,15458,2147485741,2147769243,2147561508,2147797357,2147316516,2147475876,2147711588,2148240036,352,7,13,17841
1338048544,5804,315.5599975585937500,17.8561992645263670,36.5339012145996100,237.6609039306640600,174.6109008789062500,17.8542404174804700,31.4437904357910160,50,110,101,80,67,15458,2147491456,2147772242,2147561929,2147798061,2147313600,2147477238,2147711149,2148241417,1046,7,13,62922
1338048685,5803,304.5499877929687500,17.9451007843017580,36.5483016967773440,238.3977966308593800,171.7198028564453000,17.9422607421875000,31.3700294494628900,50,109,101,80,66,15455,2147488731,2147772269,2147568155,2147796379,2147311204,2147479597,2147714285,2148240850,1522,7,13,18669
1338048824,5802,293.5899963378906000,18.0048999786376950,36.5558013916015600,238.1380004882812500,169.7915954589843800,18.0009708404541000,31.3566303253173830,50,110,101,81,66,15454,2147489910,2147770715,2147570532,2147796196,2147313243,2147475702,2147713984,2148244589,1374,7,13,52063
1338048984,5800,280.2200012207031000,18.0744991302490230,36.5674018859863300,237.5774993896484400,167.4841003417968800,18.0712509155273440,31.3520107269287100,50,109,100,80,67,15455,2147485805,2147773632,2147581010,2147798006,2147313014,2147486107,2147717769,2148241938,1675,7,13,7012
1338049094,5802,269.0700073242187500,18.1445007324218750,36.5747985839843750,237.0917968750000000,165.1878051757812500,18.1411800384521500,31.3443698883056640,50,112,101,82,68,15454,2147492068,2147776045,2147582985,2147795840,2147309952,2147479104,2147720512,2148239524,1872,7,12,20962
1338049197,5803,258.1900024414062500,18.1847991943359380,36.5792007446289060,236.5375976562500000,163.6578063964843800,18.1877899169921880,31.3500099182128900,49,110,101,81,67,15451,2147490541,2147777910,2147589714,2147795492,2147313984,2147484516,2147727506,2148242368,2330,7,12,12302
1338049314,5804,247.0299987792968800,18.2399997711181640,36.5843009948730500,235.8697052001953000,162.0531005859375000,18.2366695404052730,31.3603992462158200,50,110,100,81,67,15452,2147490157,2147781092,2147600228,2147794578,2147310838,2147487414,2147736557,2148240576,2191,7,13,52989
1338049441,5803,236.6000061035156200,18.3017997741699220,36.5899009704589840,235.2274932861328000,160.1244049072265600,18.2954292297363280,31.3652992248535160,50,110,101,81,68,15446,2147498514,2147791350,2147616521,2147798308,2147309339,2147489737,2147744009,2148242468,3372,7,13,43611
1338049582,5802,225.0800018310547000,18.3155994415283200,36.5918006896972660,234.6625976562500000,159.5601043701172000,18.3126201629638670,31.3849601745605470,50,112,101,81,67,15450,2147492681,2147796288,2147637970,2147795684,2147317952,2147496905,2147756736,2148246134,598,7,13,2781
1338049709,5802,215.0800018310547000,18.3556995391845700,36.5946006774902340,233.9857025146484400,158.2550048828125000,18.3523902893066400,31.3999500274658200,50,112,101,80,66,15448,2147496283,2147807222,2147662528,2147794313,2147314742,2147508589,2147768530,2148243273,1027,7,13,40802
1338049848,5802,204.5299987792968800,18.4078998565673830,36.5979003906250000,233.0095977783203000,156.4732971191406200,18.4066791534423830,31.4235191345214840,50,114,102,81,67,15447,2147500443,2147822372,2147701558,2147796214,2147303771,2147514313,2147793947,2148245997,1093,7,13,49861
1338049950,5803,197.9299926757812500,18.4773998260498050,36.6015014648437500,231.8730926513672000,154.3444061279297000,18.4715595245361330,31.4501590728759770,50,113,100,80,66,15445,2147499648,2147840109,2147733046,2147794230,2147314166,2147529316,2147813019,2148245732,887,7,13,53134
1338050017,5804,194.1999969482422000,18.4871997833251950,36.6026992797851560,231.5218963623047000,153.9226989746093800,18.4844093322753900,31.4615192413330080,50,112,101,82,66,15438,2147498660,2147851126,2147757046,2147795922,2147305810,2147531145,2147824539,2148248521,821,7,13,60995
1338050084,5804,190.5899963378906200,18.5221996307373050,36.6032981872558600,230.8188934326172000,152.8298950195312500,18.5177192687988280,31.4812793731689450,50,113,102,82,67,15441,2147505700,2147860626,2147778633,2147794541,2147317833,2147540187,2147842989,2148249865,813,7,13,27513
1338050163,5804,186.5599975585937500,18.6158008575439450,36.6052017211914060,230.0137023925781200,150.3150024414062500,18.5943908691406250,31.4870605468750000,50,115,101,81,67,15438,2147508352,2147879067,2147815716,2147793060,2147323501,2147553773,2147864530,2148247597,829,7,13,50891
1338050244,5804,182.8999938964843800,18.6811008453369140,36.6054992675781250,229.7960968017578000,147.7108001708984400,18.6737804412841800,31.4629192352294920,50,113,100,82,67,15438,2147508397,2147900480,2147858880,2147793289,2147323145,2147566637,2147893824,2148249947,957,7,13,51507
1338050347,5800,178.9499969482422000,18.7831993103027340,36.6055984497070300,230.8898925781250000,144.4190979003906200,18.7741603851318360,31.3653106689453120,50,116,101,81,66,15439,2147521728,2147922953,2147914468,2147795492,2147322441,2147581339,2147923712,2148250432,1161,7,13,57255
1338050462,5803,175.0899963378906200,18.8899993896484380,36.6050987243652340,231.9407958984375000,141.2210998535156200,18.8717098236084000,31.2713203430175780,51,118,102,83,67,15432,2147527460,2147957814,2147978825,2147792475,2147321133,2147598491,2147961133,2148254573,1355,7,13,39721
1338050585,5800,170.5399932861328000,19.0230007171630860,36.6008987426757800,237.5484008789062500,136.6705932617187500,19.0105495452880860,30.9432106018066400,51,119,107,82,66,15430,2147534948,2148005339,2148069549,2147793307,2147334701,2147634176,2148015698,2148257947,1985,7,13,29706
1338050676,5805,166.9199981689453000,19.1846008300781250,36.6038017272949200,243.5919952392578000,131.8287963867187500,19.1583309173584000,30.5990200042724600,51,118,104,83,65,15429,2147544557,2148038665,2148144292,2147793764,2147336658,2147664265,2148065362,2148262610,1239,7,13,51381
1338050791,5804,162.9499969482422000,19.2786998748779300,36.6078987121582000,251.8735961914062500,128.1056976318359400,19.2720108032226560,30.1803703308105470,53,121,103,83,64,15429,2147555840,2148087497,2148246957,2147795812,2147349650,2147696886,2148120905,2148262573,2026,7,13,37789
1338050893,5804,158.7100067138672000,19.3433990478515620,36.6101989746093750,257.1574096679687500,125.9589004516601600,19.3375701904296880,29.9239692687988280,54,122,103,82,62,15425,2147573467,2148133778,2148328923,2147793243,2147345746,2147734838,2148178944,2148264557,2823,7,13,12037
1338050984,5805,154.4199981689453000,19.3638000488281250,36.6119995117187500,260.4451904296875000,125.2218017578125000,19.3600807189941400,29.7751197814941400,54,122,105,84,64,15424,2147591122,2148182482,2148413778,2147793773,2147366464,2147772123,2148234688,2148269568,3141,7,13,2354
1338051063,5803,150.6100006103515600,19.3726005554199220,36.6116981506347660,261.5429077148437500,124.9169998168945300,19.3693904876709000,29.7252292633056640,56,119,109,82,62,15420,2147604160,2148228873,2148503305,2147795529,2147366162,2147805321,2148290825,2148270765,3396,7,13,19302
1338051142,5803,146.7299957275390600,19.3661994934082030,36.6068992614746100,262.3469848632812500,125.0705032348632800,19.3647098541259770,29.6933708190917970,59,123,104,83,64,15423,2147630765,2148317741,2148674368,2147796845,2147379483,2147869906,2148397705,2148278080,452,7,12,59665
1338051223,5805,142.5099945068359400,19.3645000457763670,36.6046981811523440,263.1416931152344000,125.1582031250000000,19.3620300292968750,29.6615505218505860,61,126,103,84,63,15405,2147673654,2148424621,2148879268,2147801545,2147408594,2147946322,2148523474,2148287515,159,7,13,2403
1338051302,5802,138.0599975585937500,19.3672008514404300,36.6045989990234400,263.4707031250000000,125.0745010375976600,19.3645801544189450,29.6469001770019530,65,127,104,85,63,15405,2147718500,2148570642,2149141037,2147804352,2147432457,2148040301,2148681837,2148297508,467,7,12,3153
1338051369,5804,134.0700073242187500,19.3687992095947270,36.6049995422363300,263.4133911132812500,125.0115966796875000,19.3665008544921880,29.6484508514404300,65,126,105,85,62,15408,2147777444,2148720082,2149429906,2147803785,2147458925,2148147986,2148861430,2148309540,688,7,13,5283
1338051436,5802,129.8300018310547000,19.3691997528076170,36.6046981811523440,263.5494079589844000,124.9987030029296900,19.3668994903564450,29.6426792144775400,65,126,106,85,65,15410,2147841718,2148872713,2149704128,2147807012,2147488585,2148248722,2149020507,2148318793,785,7,13,21714
1338051491,5804,126.2300033569336000,19.3703002929687500,36.6041984558105500,263.5256042480469000,124.9657974243164000,19.3679008483886720,29.6433200836181640,67,133,105,84,63,15409,2147894052,2148997915,2149923529,2147812269,2147516809,2148334893,2149158921,2148326665,997,7,12,9549
1338051560,5803,121.6500015258789000,19.3735008239746100,36.6031990051269500,263.6759033203125000,124.8714981079101600,19.3707809448242200,29.6357707977294920,70,132,106,83,63,15396,2147938130,2149058770,2149999232,2147815625,2147545106,2148370304,2149202331,2148335762,1207,7,13,2561
1338051615,5805,117.9599990844726600,19.3770999908447270,36.6027984619140600,263.5719909667969000,124.7572021484375000,19.3742809295654300,29.6385803222656250,79,130,108,86,63,15388,2148009572,2149201161,2150237577,2147820050,2147581248,2148458962,2149346304,2148344740,1315,7,13,61429
1338051670,5802,114.3099975585937500,19.3798999786376950,36.6013984680175800,263.6311950683594000,124.6549987792968800,19.3773994445800780,29.6349697113037100,90,137,106,89,62,15356,2148126445,2149453348,2150678016,2147831853,2147637403,2148606957,2149587099,2148361517,1461,7,13,39159
1338051737,5803,109.9000015258789000,19.3871994018554700,36.6016006469726560,263.6099853515625000,124.4302978515625000,19.3842601776123050,29.6327991485595700,96,138,106,87,65,15349,2148287497,2149774162,2151213202,2147845723,2147722194,2148776996,2149849974,2148384886,1339,7,13,1769
1338051792,5802,106.3300018310546900,19.3931999206542970,36.6016006469726560,264.0415954589844000,124.2403030395507800,19.3900604248046880,29.6126194000244140,102,142,106,86,64,15342,2148477120,2150153746,2151826212,2147862272,2147797705,2148972260,2150158500,2148415012,1315,7,13,19380
1338051867,5802,101.9800033569336000,19.3938999176025400,36.5978012084960940,264.3550109863281000,124.1584014892578100,19.3925704956054700,29.5985393524169920,115,142,106,86,63,15339,2148781403,2150741622,2152778139,2147891629,2147923035,2149257161,2150612635,2148453622,1556,7,13,6363
1338051946,5803,98.4300003051757800,19.3966999053955080,36.5965995788574200,264.5833129882812500,124.1073989868164000,19.3941192626953120,29.5883998870849600,125,150,107,88,64,15323,2149075382,2151283510,2153604306,2147919963,2148053229,2149499163,2150979840,2148495506,1479,7,13,2450
1338052001,5801,96.1699981689453100,19.3955001831054700,36.5943984985351560,264.1278991699219000,124.0932998657226600,19.3945598602294920,29.6068592071533200,133,148,108,88,63,15314,2149368941,2151839222,2154470464,2147950454,2148170285,2149751817,2151365083,2148529298,1540,7,13,46420
1338052056,5803,94.0500030517578100,19.4060001373291000,36.5946998596191400,265.0999145507812500,123.7791976928711000,19.4041500091552730,29.5630302429199220,130,150,108,88,63,15306,2149736329,2152532726,2155529389,2147988525,2148332196,2150051008,2151839067,2148578697,1588,7,13,26605
1338052111,5802,92.0100021362304700,19.4221992492675780,36.5952987670898440,266.7864990234375000,123.2731018066406200,19.4196090698242200,29.4873409271240230,131,152,108,87,65,15300,2150200512,2153388498,2156806592,2148038893,2148501586,2150394002,2152372105,2148633481,1511,7,13,26368
1338052168,5804,89.9800033569336000,19.4319000244140620,36.5955009460449200,268.2081909179687500,122.9674987792968800,19.4289493560791000,29.4254798889160160,138,149,112,88,63,15291,2150689435,2154251017,2158014802,2148082605,2148678756,2150717348,2152838601,2148689920,1511,7,13,7609
1338052223,5802,88.0100021362304700,19.4335994720459000,36.5950012207031250,269.2962951660156000,122.8625030517578100,19.4321594238281250,29.3799400329589840,135,153,108,87,63,15279,2151434742,2155600137,2159981193,2148160603,2148952118,2151240027,2153620361,2148783963,1544,7,13,12339
1338052278,5803,86.0699996948242200,19.4379997253417970,36.5951004028320300,269.9971923828125000,122.6996002197265600,19.4371299743652340,29.3496303558349600,138,157,108,87,63,15280,2152090294,2156705563,2161417371,2148225846,2149190080,2151629220,2154153398,2148851885,1653,7,13,63374
1338052345,5805,83.7200012207031200,19.4489002227783200,36.5957984924316400,270.7307128906250000,122.3304977416992200,19.4484100341796880,29.3154506683349600,140,153,108,88,66,15259,2152886985,2157986450,2162983131,2148298358,2149467264,2152064932,2154712201,2148936420,1729,7,13,30808
1338052400,5803,81.8600006103515600,19.4666996002197270,36.5970993041992200,271.3276062011719000,121.8376007080078100,19.4634704589843750,29.2853202819824220,146,155,113,90,64,15242,2153688201,2159272466,2164525394,2148365814,2149758829,2152505014,2155254381,2149018523,1860,7,13,22259
1338052455,5804,79.9499969482421900,19.4706001281738280,36.5959014892578100,272.0120849609375000,121.6773986816406200,19.4683609008789060,29.2560405731201170,147,160,109,88,64,15242,2154976009,2161384649,2167197933,2148496914,2150230765,2153273974,2156270299,2149161142,1889,7,13,25904
1338052530,5804,76.7799987792968800,19.4820003509521500,36.5928993225097660,273.2591857910156000,121.2502975463867200,19.4814205169677730,29.2009601593017580,136,154,111,90,63,15232,2157155172,2164785234,2171182116,2148708800,2151066825,2154547318,2157840347,2149395629,1745,7,13,27550
1338052585,5802,73.7900009155273400,19.4993991851806640,36.5933990478515600,274.2522888183594000,120.6882019042968800,19.4985904693603500,29.1544799804687500,123,154,110,89,63,15231,2159337984,2167991835,2174675483,2148943405,2151963913,2155035629,2159424246,2149623058,1849,7,13,7506
1338052640,5804,70.7099990844726600,19.5349998474121100,36.5942001342773440,275.5631103515625000,119.4970016479492200,19.5349903106689450,29.0875797271728500,117,157,110,88,63,15218,2162024128,2171837202,2178862646,2149242121,2153153033,2157682742,2161465508,2149901202,1901,7,13,61635
1338052695,5805,67.4300003051757800,19.5618000030517580,36.5965995788574200,276.9736022949219000,118.6714019775390600,19.5602207183837900,29.0221004486084000,108,154,111,88,63,15220,2165370514,2176342500,2183656457,2149653632,2154678921,2159889325,2163874413,2150234605,2020,6,13,43294
1338052750,5803,64.1399993896484400,19.5842990875244140,36.5961990356445300,277.8493957519531000,117.8311004638671900,19.5859107971191400,28.9772491455078120,110,179,111,89,61,15211,2169115090,2181174528,2188656219,2150132800,2156425837,2162417590,2166592100,2150618486,1735,7,13,39246
1338052805,5804,60.7999992370605500,19.6399002075195300,36.5940017700195300,278.8559875488281000,116.2080001831054700,19.6355209350585940,28.9178295135498050,103,163,114,91,62,15207,2174044306,2187299410,2195015195,2150854546,2158798217,2165747584,2170079579,2151133211,1826,7,13,24220
1338052862,5805,57.4599990844726560,19.7028999328613280,36.5948982238769500,279.9721984863281000,114.4643020629882800,19.6888294219970700,28.8526191711425780,96,161,114,90,60,15195,2179362249,2193539574,2201216713,2151644571,2161545508,2169401920,2173766217,2151664859,2317,7,13,13577
1338052917,5805,54.5299987792968750,19.7828006744384770,36.5954017639160160,280.5976867675781000,111.4746017456054700,19.7802505493164060,28.7908992767334000,94,161,112,89,60,15186,2186182025,2201644571,2209493229,2152750546,2165098276,2174157750,2178616585,2152374052,2703,7,13,39724
1338053059,5804,49.6800003051757800,19.9934997558593750,36.5989990234375000,281.2037963867187500,104.6829986572265600,19.9880409240722660,28.6825103759765620,90,155,111,91,62,15180,2199948425,2217075035,2224667264,2155129380,2173002514,2184104768,2188150372,2153841764,2359,7,13,38935
1338053092,5802,48.6800003051757800,20.0799999237060550,36.6007003784179700,280.7948913574219000,102.3848037719726600,20.0583801269531250,28.6693992614746100,85,154,114,90,61,15186,2202237558,2219310235,2226509147,2155445202,2174538998,2185920640,2189644452,2154038354,2383,7,13,32932
1338053199,5805,46.9099998474121100,20.4132003784179700,36.6128997802734400,278.8659973144531000,91.1272735595703100,20.4032096862792970,28.6024398803710940,77,153,117,90,61,15186,2205801069,2222284617,2228233709,2155875172,2177750994,2189341677,2191971008,2154293266,2970,6,13,26515
1338053603,5804,44.7999992370605500,20.7539997100830080,36.6138000488281250,274.6607055664062500,79.6863937377929700,20.7541198730468750,28.6226596832275400,72,147,113,89,59,15186,2206664256,2221236809,2225434925,2156200237,2182647698,2193631542,2193594221,2154451437,3541,8,13,13662
1338053660,5803,42.6100006103515600,20.7754001617431640,36.6128005981445300,274.4779052734375000,79.1609191894531200,20.7702407836914060,28.6232109069824220,72,148,111,89,61,15196,2212153243,2226886848,2231117558,2157706578,2187636132,2199139648,2198229787,2155230363,3375,8,13,44307
1338053717,5806,40.4700012207031250,20.8722991943359380,36.6058006286621100,273.9039001464844000,76.0115280151367200,20.8669300079345700,28.6062698364257800,70,151,110,90,59,15208,2218397476,2233545417,2237998070,2159454976,2193488118,2205598811,2203745170,2156172553,79,7,13,406
1338053798,5804,37.6599998474121100,20.9745006561279300,36.6004981994628900,272.7921142578125000,72.8206405639648400,20.9649295806884770,28.6101703643798830,65,149,111,90,59,15206,2229323209,2245120877,2250141129,2162869357,2203729554,2216695597,2213149101,2157910985,453,7,13,28671
1338053843,5803,35.6100006103515600,21.0088005065917970,36.5951995849609400,272.1878967285156000,71.2908401489257800,21.0119304656982420,28.6149406433105470,64,148,110,89,60,15223,2236939373,2252766747,2258177325,2165896201,2211501110,2224790564,2219921490,2159271881,823,7,13,6904
1338053888,5802,33.4599990844726560,21.0503997802734380,36.5885009765625000,271.6552124023437500,69.7384262084961000,21.0596294403076170,28.6165504455566400,62,141,113,89,56,15224,2245030436,2260953536,2266758902,2169117321,2220202185,2233910180,2227458688,2160779721,799,7,13,16818
1338053933,5802,31.3700008392334000,21.0935993194580080,36.5816993713378900,271.2413024902344000,68.5419235229492200,21.0964107513427730,28.6180191040039060,61,144,111,90,58,15229,2253721490,2269741193,2276022226,2172940489,2229354770,2243312466,2235044736,2162459977,653,7,13,20791
1338053978,5804,29.4400005340576170,21.1285991668701170,36.5775985717773440,270.8403015136719000,67.2419662475586000,21.1363601684570300,28.6176204681396500,61,146,110,89,57,15220,2260375597,2275880365,2282589101,2176871085,2237235840,2250986514,2241043245,2163979894,566,8,13,26332
1338054023,5804,27.5100002288818360,21.1567001342773440,36.5745010375976560,270.7088928222656000,66.3707962036132800,21.1631507873535160,28.6121807098388670,60,146,112,90,60,15220,2267720658,2282807981,2289786870,2181054573,2246208201,2259665691,2247757330,2165749001,318,7,13,16553
1338054068,5805,25.5900001525878900,21.1606998443603500,36.5737991333007800,270.4916992187500000,65.9335479736328100,21.1765899658203120,28.6152095794677730,59,145,109,88,61,15214,2275741083,2290353344,2297687899,2185847469,2255194761,2268272548,2254492873,2167623012,246,6,13,55326
